星链-32210 (STARLINK-32210)

导读

STARLINK-32210是美国SpaceX星链互联网卫星项目中的一颗卫星,于2024年8月20日发射入轨。星链计划旨在搭建覆盖全球的卫星互联网星座,为全球偏远地区、海洋等网络覆盖薄弱区域提供高速互联网服务,该卫星是星链低轨卫星星座组网建设的组成部分。

Basic Information
目录编号:
60594
目录名称:
STARLINK-32210
国际标识:
2024-150M
轨道中心:
EARTH
卫星名称:
星链-32210 (STARLINK-32210)
卫星全名:
星链-32210 (STARLINK-32210)
卫星状态:
在轨 (已飞行745 天)
发射日期:
2024-08-20 UTC
国别 :
美国 (US)
星等 :
--
Orbit Information
数据来源 国际轨道数据 AOE轨道数据
星历时间 2026-09-03T11:53:15+0800
23小时前
查看轨道信息
2026-08-29T23:00:00+0800
5天前
查看轨道信息
半长轴 6840.874km 6840.861km
偏心率 0.0001587 0.0001301
轨道倾角 53.160° 53.157°
近地点辐角 88.790° 90.413°
升交点赤经 199.105° 220.316°
平近点角 271.329° 34.372°
近地点 461.651km 461.834km
远地点 463.823km 463.614km
周期 93.848分钟 93.848分钟
每日圈数 15.343889 15.343931
Detailed Information
卫星平台:
Starlink v2.0 mini
运营商:
太空探索技术公司
运营商所在国:
美国
制造商(研发单位):
太空探索技术公司
制造商所在国:
美国
使用方式:
暂无
Satellite Introduction
星链(Starlink)计划是由太空探索技术公司(SpaceX)提出的一个巨型低轨卫星互联网星座项目,计划在2019年至2024年间在太空搭建由约1.2万颗卫星组成的“星链”网络,其中1584颗将部署在地球上空550千米处的近地轨道,并从2020年开始工作。该卫星仍在工作。
2D Orbit Map
3D Orbit Map
Orbit Altitude Analysis Chart
Orbit Inclination Analysis Chart
Orbit Comprehensive Analysis Chart
View Comprehensive Chart
Conjunction Data List
Event ID Objects TCA Miss Dist (km) Collision Risk Probability Collision Risk Index (CRI) Action
CDM_260905-050505-434606-059421
2026-09-05T
05:05:05+0000
0.686 km
远距离
9.066895E-5 中风险 0.74
CDM_260905-004306-059406-541821
2026-09-05T
00:43:41+0000
1.178 km
极远距离
9.26466E-6 低风险 0.54
CDM_260903-082506-034506-059421
2026-09-03T
08:25:06+0000
2.177 km
极远距离
1.958081E-6 低风险 0.41
CDM_260904-115505-342606-059421
2026-09-04T
11:55:05+0000
2.475 km
极远距离
1.595671E-6 低风险 0.39
CDM_260903-030505-343006-059422
2026-09-03T
03:05:22+0000
2.892 km
极远距离
1.255806E-6 低风险 0.37